�������l�o���
Date,Time,MP-1(��Sv/h),MP-2(��Sv/h),MP-3(��Sv/h),MP-4(��Sv/h),MP-5(��Sv/h),MP-6(��Sv/h),MP-7(��Sv/h),����,����(m/s),���J
2023/06/27,00:00,0.143,0.134,0.210,0.201,0.210,0.116,0.075,��쐼,4.0,��
2023/06/27,00:10,0.146,0.135,0.212,0.202,0.209,0.115,0.075,��쐼,4.0,��
2023/06/27,00:20,0.145,0.133,0.210,0.201,0.211,0.116,0.075,��쐼,3.0,��
2023/06/27,00:30,0.144,0.135,0.212,0.203,0.209,0.116,0.076,��쐼,3.1,��
2023/06/27,00:40,0.145,0.133,0.210,0.202,0.212,0.115,0.075,��쐼,2.8,��
2023/06/27,00:50,0.145,0.134,0.210,0.202,0.212,0.117,0.075,��쐼,2.6,��
2023/06/27,01:00,0.145,0.134,0.211,0.203,0.210,0.116,0.075,��,2.1,��
2023/06/27,01:10,0.146,0.134,0.210,0.201,0.211,0.115,0.076,��,2.3,��
2023/06/27,01:20,0.145,0.133,0.210,0.203,0.210,0.116,0.075,��,2.4,��
2023/06/27,01:30,0.146,0.134,0.210,0.201,0.211,0.115,0.076,��,2.5,��
2023/06/27,01:40,0.145,0.134,0.211,0.204,0.211,0.116,0.076,��,2.5,��
2023/06/27,01:50,0.146,0.134,0.211,0.203,0.209,0.116,0.075,��,2.5,��
2023/06/27,02:00,0.145,0.135,0.211,0.201,0.212,0.116,0.076,��,2.2,��
2023/06/27,02:10,0.145,0.134,0.210,0.203,0.209,0.116,0.076,��,2.2,��
2023/06/27,02:20,0.146,0.134,0.210,0.200,0.212,0.115,0.075,��,1.8,��
2023/06/27,02:30,0.146,0.133,0.211,0.202,0.210,0.117,0.076,��쓌,2.0,��
2023/06/27,02:40,0.146,0.134,0.209,0.201,0.210,0.116,0.075,��쓌,1.9,��
2023/06/27,02:50,0.144,0.133,0.211,0.202,0.212,0.115,0.076,��,2.2,��
2023/06/27,03:00,0.144,0.135,0.210,0.202,0.209,0.116,0.076,��,2.3,��
2023/06/27,03:10,0.145,0.135,0.212,0.202,0.212,0.116,0.077,��,2.1,��
2023/06/27,03:20,0.145,0.135,0.210,0.202,0.209,0.117,0.076,��,1.9,��
2023/06/27,03:30,0.146,0.134,0.212,0.201,0.211,0.116,0.076,��,2.2,��
2023/06/27,03:40,0.146,0.133,0.210,0.203,0.211,0.116,0.076,��,2.4,��
2023/06/27,03:50,0.146,0.134,0.212,0.201,0.209,0.118,0.076,��,2.8,��
2023/06/27,04:00,0.146,0.134,0.209,0.202,0.212,0.117,0.076,��,3.0,��
2023/06/27,04:10,0.145,0.134,0.211,0.203,0.209,0.116,0.076,��,3.1,��
2023/06/27,04:20,0.145,0.134,0.209,0.202,0.211,0.116,0.076,��,3.3,��
2023/06/27,04:30,0.144,0.134,0.210,0.202,0.211,0.117,0.076,��쐼,3.2,��
2023/06/27,04:40,0.146,0.133,0.210,0.201,0.211,0.116,0.077,��,3.0,��
2023/06/27,04:50,0.145,0.135,0.210,0.203,0.212,0.116,0.076,��쐼,3.8,��
2023/06/27,05:00,0.146,0.133,0.211,0.200,0.209,0.116,0.076,��,3.4,��
2023/06/27,05:10,0.146,0.135,0.210,0.203,0.211,0.116,0.076,��,3.2,��
2023/06/27,05:20,0.145,0.134,0.211,0.201,0.211,0.116,0.076,��쓌,3.3,��
2023/06/27,05:30,0.146,0.134,0.211,0.203,0.210,0.116,0.077,��,3.6,��
2023/06/27,05:40,0.145,0.134,0.211,0.202,0.212,0.118,0.077,��,2.3,��
2023/06/27,05:50,0.147,0.133,0.209,0.202,0.209,0.116,0.077,�쐼,2.1,��
2023/06/27,06:00,0.146,0.135,0.212,0.203,0.210,0.116,0.076,��쐼,1.9,��
2023/06/27,06:10,0.145,0.134,0.209,0.201,0.210,0.117,0.076,��쐼,1.7,��
2023/06/27,06:20,0.146,0.135,0.211,0.204,0.209,0.116,0.077,��쓌,2.0,��
2023/06/27,06:30,0.146,0.135,0.210,0.203,0.211,0.117,0.077,��쓌,1.9,��
2023/06/27,06:40,0.145,0.134,0.209,0.201,0.212,0.116,0.075,��,3.0,��
2023/06/27,06:50,0.146,0.134,0.211,0.203,0.210,0.116,0.076,��,3.0,��
2023/06/27,07:00,0.144,0.134,0.211,0.202,0.211,0.116,0.076,��쓌,2.3,��
2023/06/27,07:10,0.145,0.134,0.208,0.200,0.212,0.115,0.076,��,3.1,��
2023/06/27,07:20,0.146,0.134,0.209,0.200,0.211,0.115,0.075,��쓌,3.6,��
2023/06/27,07:30,-,-,-,-,-,-,-,-,-,-
2023/06/27,07:40,0.145,0.134,0.211,0.201,0.208,0.116,0.076,��쓌,2.2,��
2023/06/27,07:50,0.145,0.134,0.208,0.200,0.211,0.115,0.076,��쓌,3.6,��
2023/06/27,08:00,0.145,0.133,0.209,0.199,0.212,0.116,0.076,��쓌,4.8,��
2023/06/27,08:10,0.143,0.132,0.208,0.199,0.211,0.116,0.076,�쓌,5.5,��
2023/06/27,08:20,0.144,0.133,0.208,0.199,0.210,0.116,0.075,��쓌,6.2,��
2023/06/27,08:30,0.145,0.132,0.208,0.199,0.208,0.115,0.075,��,6.3,��
2023/06/27,08:40,0.145,0.133,0.210,0.200,0.209,0.115,0.075,��쓌,6.8,��
2023/06/27,08:50,0.143,0.133,0.210,0.199,0.208,0.114,0.074,��쓌,6.7,��
2023/06/27,09:00,-,-,-,-,-,-,-,-,-,-
2023/06/27,09:10,0.142,0.133,0.209,0.199,0.208,0.116,0.074,��쓌,6.9,��
2023/06/27,09:20,0.145,0.133,0.208,0.199,0.208,0.116,0.074,��쓌,7.3,��
2023/06/27,09:30,0.146,0.133,0.208,0.198,0.207,0.115,0.074,��쓌,7.2,��
2023/06/27,09:40,0.144,0.134,0.208,0.200,0.210,0.115,0.075,��쓌,8.3,��
2023/06/27,09:50,0.144,0.133,0.208,0.202,0.211,0.115,0.074,��쓌,7.4,��
2023/06/27,10:00,0.143,0.133,0.208,0.202,0.211,0.115,0.074,��쓌,7.4,��
2023/06/27,10:10,0.143,0.133,0.210,0.203,0.210,0.115,0.075,��쓌,8.7,��
2023/06/27,10:20,0.145,0.132,0.209,0.201,0.211,0.114,0.074,��쓌,9.2,��
2023/06/27,10:30,0.143,0.133,0.210,0.201,0.210,0.115,0.074,��쓌,8.4,��
2023/06/27,10:40,0.143,0.132,0.209,0.202,0.209,0.116,0.073,��쓌,8.8,��
2023/06/27,10:50,0.144,0.133,0.209,0.200,0.209,0.115,0.074,��쓌,10.1,��
2023/06/27,11:00,0.143,0.134,0.209,0.201,0.209,0.116,0.074,��쓌,8.4,��
2023/06/27,11:10,0.144,0.133,0.209,0.201,0.208,0.116,0.075,��쓌,8.1,��
2023/06/27,11:20,0.143,0.133,0.209,0.201,0.211,0.116,0.075,��쓌,8.3,��
2023/06/27,11:30,0.144,0.133,0.209,0.200,0.209,0.115,0.074,��,8.3,��
2023/06/27,11:40,0.144,0.134,0.209,0.201,0.209,0.116,0.074,��쓌,9.6,��
2023/06/27,11:50,0.143,0.133,0.209,0.200,0.208,0.115,0.074,��쓌,9.8,��
2023/06/27,12:00,0.142,0.134,0.210,0.200,0.209,0.115,0.074,��쓌,8.7,��
2023/06/27,12:10,0.144,0.132,0.209,0.200,0.209,0.116,0.074,��쓌,8.4,��
2023/06/27,12:20,0.144,0.133,0.209,0.200,0.208,0.116,0.074,��쓌,9.6,��
2023/06/27,12:30,0.143,0.134,0.209,0.199,0.210,0.116,0.076,��쓌,8.8,��
2023/06/27,12:40,0.144,0.133,0.209,0.200,0.209,0.115,0.075,��쓌,7.9,��
2023/06/27,12:50,0.144,0.133,0.209,0.200,0.208,0.115,0.074,��쓌,8.1,��
2023/06/27,13:00,0.146,0.135,0.208,0.203,0.209,0.115,0.074,��쓌,9.0,��
2023/06/27,13:10,0.145,0.134,0.208,0.203,0.212,0.116,0.074,��,9.0,��
2023/06/27,13:20,0.145,0.134,0.208,0.202,0.211,0.115,0.076,��,9.2,��
2023/06/27,13:30,0.144,0.133,0.211,0.200,0.211,0.115,0.075,��,10.7,��
2023/06/27,13:40,0.143,0.133,0.211,0.200,0.209,0.115,0.076,��,11.2,�L
2023/06/27,13:50,0.146,0.133,0.210,0.201,0.208,0.117,0.075,��쓌,9.8,�L
2023/06/27,14:00,0.145,0.134,0.210,0.203,0.209,0.116,0.074,��,9.8,�L
2023/06/27,14:10,0.145,0.135,0.210,0.204,0.213,0.116,0.076,��,8.1,�L
2023/06/27,14:20,0.144,0.135,0.209,0.202,0.210,0.116,0.076,��쓌,6.9,�L
2023/06/27,14:30,0.145,0.134,0.213,0.201,0.210,0.116,0.075,��,8.1,�L
2023/06/27,14:40,0.147,0.135,0.213,0.203,0.209,0.117,0.075,��,8.4,�L
2023/06/27,14:50,0.146,0.134,0.210,0.205,0.212,0.116,0.076,��,8.3,�L
2023/06/27,15:00,0.144,0.134,0.210,0.203,0.213,0.115,0.076,��,8.1,�L
2023/06/27,15:10,0.144,0.134,0.210,0.202,0.211,0.117,0.076,��,7.5,��
2023/06/27,15:20,0.144,0.133,0.208,0.200,0.209,0.117,0.074,��쓌,7.4,��
2023/06/27,15:30,0.145,0.134,0.209,0.200,0.209,0.117,0.074,��쓌,7.5,��
2023/06/27,15:40,0.146,0.133,0.212,0.202,0.208,0.116,0.074,��,7.9,�L
2023/06/27,15:50,0.145,0.134,0.212,0.203,0.209,0.115,0.075,��,8.4,�L
2023/06/27,16:00,0.145,0.134,0.210,0.201,0.213,0.115,0.076,��쓌,8.2,�L
2023/06/27,16:10,0.143,0.134,0.209,0.201,0.212,0.116,0.074,��,7.2,�L
2023/06/27,16:20,0.144,0.133,0.209,0.200,0.209,0.115,0.074,��,7.1,��
2023/06/27,16:30,0.145,0.132,0.211,0.202,0.209,0.114,0.076,��,7.3,��
2023/06/27,16:40,0.145,0.134,0.212,0.202,0.208,0.115,0.075,��,6.7,��
2023/06/27,16:50,0.145,0.135,0.209,0.203,0.210,0.115,0.075,��,6.5,��
2023/06/27,17:00,0.144,0.133,0.209,0.201,0.211,0.116,0.074,��,7.0,��
2023/06/27,17:10,0.146,0.133,0.208,0.200,0.211,0.115,0.074,��,6.3,��
2023/06/27,17:20,0.146,0.134,0.212,0.203,0.208,0.115,0.075,��,6.2,��
2023/06/27,17:30,0.145,0.134,0.211,0.204,0.210,0.116,0.074,��,5.8,��
2023/06/27,17:40,0.144,0.133,0.209,0.201,0.212,0.115,0.075,��,5.6,��
2023/06/27,17:50,0.144,0.131,0.210,0.199,0.209,0.116,0.075,��,6.2,��
2023/06/27,18:00,0.146,0.133,0.212,0.202,0.209,0.116,0.075,��,5.4,��
2023/06/27,18:10,0.145,0.134,0.213,0.203,0.210,0.115,0.074,��,5.2,��
2023/06/27,18:20,0.144,0.133,0.210,0.201,0.211,0.115,0.074,��,4.5,��
2023/06/27,18:30,0.145,0.133,0.209,0.200,0.210,0.114,0.075,��,5.3,��
2023/06/27,18:40,0.146,0.134,0.212,0.204,0.208,0.114,0.075,��,5.6,��
2023/06/27,18:50,0.145,0.134,0.212,0.203,0.209,0.115,0.074,��,5.0,��
2023/06/27,19:00,0.144,0.134,0.210,0.202,0.211,0.115,0.075,��,5.0,��
2023/06/27,19:10,0.146,0.132,0.211,0.201,0.210,0.115,0.075,��,4.1,��
2023/06/27,19:20,0.145,0.134,0.212,0.203,0.209,0.115,0.074,��,4.6,��
2023/06/27,19:30,0.144,0.134,0.211,0.202,0.211,0.115,0.074,��,4.6,��
2023/06/27,19:40,0.145,0.133,0.208,0.202,0.211,0.115,0.076,��,4.3,��
2023/06/27,19:50,0.146,0.134,0.212,0.202,0.209,0.115,0.075,��쐼,4.2,��
2023/06/27,20:00,0.144,0.134,0.211,0.202,0.209,0.115,0.075,��쐼,3.6,��
2023/06/27,20:10,0.145,0.133,0.210,0.201,0.213,0.115,0.076,��,2.6,��
2023/06/27,20:20,0.146,0.134,0.212,0.203,0.210,0.115,0.075,��쐼,2.8,��
2023/06/27,20:30,0.146,0.133,0.212,0.202,0.209,0.116,0.074,�쐼,2.2,��
2023/06/27,20:40,0.144,0.133,0.209,0.202,0.211,0.116,0.076,�쐼,1.9,��
2023/06/27,20:50,0.145,0.133,0.210,0.201,0.212,0.115,0.075,���쐼,1.2,��
2023/06/27,21:00,0.145,0.134,0.212,0.203,0.210,0.116,0.074,�쐼,1.5,��
2023/06/27,21:10,0.144,0.133,0.210,0.201,0.210,0.116,0.075,��,2.2,��
2023/06/27,21:20,0.145,0.134,0.209,0.201,0.212,0.115,0.075,��,2.4,��
2023/06/27,21:30,0.147,0.134,0.212,0.204,0.211,0.115,0.075,��,2.6,��
2023/06/27,21:40,0.145,0.133,0.210,0.202,0.208,0.116,0.075,��,4.1,�L
2023/06/27,21:50,0.144,0.134,0.209,0.201,0.213,0.115,0.076,��쓌,3.6,�L
2023/06/27,22:00,0.145,0.134,0.211,0.203,0.211,0.115,0.076,��쓌,3.5,�L
2023/06/27,22:10,0.145,0.132,0.210,0.204,0.209,0.116,0.075,��,3.5,��
2023/06/27,22:20,0.144,0.134,0.209,0.202,0.210,0.115,0.075,��,2.5,��
2023/06/27,22:30,0.145,0.134,0.211,0.203,0.213,0.115,0.075,��,2.9,��
2023/06/27,22:40,-,-,-,-,-,-,-,-,-,-
2023/06/27,22:50,0.144,0.133,0.210,0.202,0.209,0.116,0.075,��,2.6,�L
2023/06/27,23:00,0.145,0.135,0.212,0.202,0.212,0.115,0.075,�쓌,0.8,�L
2023/06/27,23:10,0.146,0.133,0.212,0.204,0.212,0.116,0.075,��,3.4,�L
2023/06/27,23:20,0.145,0.133,0.209,0.204,0.208,0.116,0.076,��,3.8,�L
2023/06/27,23:30,0.145,0.135,0.211,0.201,0.212,0.116,0.076,��쓌,3.5,�L
2023/06/27,23:40,0.146,0.134,0.212,0.204,0.212,0.115,0.076,��,3.1,�L
2023/06/27,23:50,0.146,0.135,0.211,0.201,0.210,0.117,0.076,��,2.9,�L
